Location: T. Spence Memorial Observatory
(32.7356°N, 82.2098°W)
Time: 23:31:17
(UTC-05:00)

Cosmos 2219 - Visible Passes

Search period start: 21 February 2017 00:00
Search period end: 03 March 2017 00:00
Orbit: 833 x 861 km, 71.1° (Epoch: 21 February)

Date Brightness Start Highest point End Pass type
(mag) Time Alt. Az. Time Alt. Az. Time Alt. Az.
21 Feb 4.9 05:58:02 10° N 06:03:11 35° ENE 06:08:15 10° SE visible
21 Feb 4.6 19:03:24 10° SE 19:07:00 17° E 19:09:25 13° ENE visible
21 Feb 3.9 20:45:03 10° SW 20:50:37 52° WNW 20:51:30 47° NW visible
22 Feb 4.9 05:44:35 10° N 05:49:42 34° ENE 05:54:46 10° SE visible
22 Feb 4.6 18:50:03 10° SE 18:53:33 17° E 18:57:03 10° ENE visible
22 Feb 3.9 20:31:34 10° SW 20:37:10 53° WNW 20:41:01 20° N visible
23 Feb 4.9 05:31:10 10° N 05:36:14 33° ENE 05:41:15 10° SE visible
23 Feb 3.9 20:18:06 10° SW 20:23:42 55° WNW 20:29:20 10° N visible
24 Feb 4.9 05:17:43 10° N 05:22:46 32° ENE 05:27:45 10° SE visible
24 Feb 3.8 20:04:36 10° SW 20:10:14 56° WNW 20:15:54 10° N visible
25 Feb 4.9 05:04:17 10° N 05:09:18 31° ENE 05:14:14 10° SE visible
25 Feb 3.8 19:51:08 10° SSW 19:56:46 58° WNW 20:02:26 10° NNE visible
26 Feb 4.9 04:50:52 10° N 04:55:50 30° ENE 05:00:44 10° ESE visible
26 Feb 4.0 06:35:01 10° NW 06:39:49 29° WSW 06:44:36 10° SSW visible
26 Feb 3.8 19:37:39 10° SSW 19:43:18 59° WNW 19:49:00 10° NNE visible
27 Feb 5.0 04:37:26 10° N 04:42:21 30° ENE 04:47:13 10° ESE visible
27 Feb 3.9 06:21:32 10° NW 06:26:22 30° WSW 06:31:11 10° SSW visible
27 Feb 3.8 19:24:11 10° SSW 19:29:51 61° WNW 19:35:33 10° NNE visible
28 Feb 5.0 04:24:00 10° N 04:28:52 29° ENE 04:33:42 10° ESE visible
28 Feb 3.9 06:08:02 10° NW 06:12:55 31° WSW 06:17:47 10° SSW visible
28 Feb 3.8 19:10:43 10° SSW 19:16:23 63° WNW 19:22:06 10° NNE visible
01 Mar 5.0 04:10:35 10° N 04:15:25 28° ENE 04:20:11 10° ESE visible
01 Mar 3.8 05:54:32 10° NW 05:59:28 32° WSW 06:04:22 10° SSW visible
01 Mar 3.8 18:57:14 10° SSW 19:02:56 64° WNW 19:08:39 10° NNE visible
02 Mar 5.0 03:59:11 19° NNE 04:01:56 28° ENE 04:06:41 10° ESE visible
02 Mar 3.8 05:41:20 11° NW 05:46:01 33° WSW 05:50:57 10° SSW visible
02 Mar 3.8 18:43:46 10° SSW 18:49:28 66° WNW 18:55:11 10° NNE visible
